"Pseudo-MPEC" for a552043

Created 2020 Sep 25 0:07:28 UT using Find_Orb

Click here for an explanation of pseudo-MPECs

 
 Astrometry: 
     a552043 .C2020 01 26elAstrometry$TAIiMn2/^fFj?39i%9redacted;^W,+HM5g@mB;807
     a552043 .C2020 01 27=1clickhYYhereThu8.v]'cPphCU`U;forlexplanation#B[kNg807

Station data:
(807) Cerro Tololo Observatory, La Serena  (S30.169136 W70.805900)  Chile.

Orbital elements:  a552043
   Perihelion 2020 Jan 29.955211 +/- 1133 TT = 22:55:30 (JD 2458878.455211)
Epoch 2020 Jan 27.0 TT = JDT 2458875.5   Earth MOID: 0.5530   AutoNEOCP
M 359.29527718 +/- 53               (J2000 ecliptic)
n   0.23846787 +/- 0.129            Peri.  277.62081 +/- 80
a   2.57542826 +/- 0.926            Node   210.41757 +/- 43
e   0.4057199 +/- 0.218             Incl.    4.25382 +/- 52
P   4.13                   H 22.6   G  0.15   U 11.5  SR
q 1.53052550 +/- 2.48    Q 3.62033101 +/- 200
From 2 observations 2020 Jan. 26-27 (25.0 hr); mean residual 0".03
Residuals in arcseconds: 
200126 807  .01-  .04-    200127 807  .01-  .04-    

Ephemerides (geocentric):
Date (UTC) HH   RA              Dec         delta   r     elong  mag " sig PA
---- -- -- --  -------------   -----------  ------ ------ -----  --- ---- ---
2020 09 25 00  14 24 24.867   -13 02 51.66  3.1298 2.3919  36.0 27.8  38d  12
2020 09 25 01  14 24 29.420   -13 03 12.49  3.1303 2.3921  36.0 27.8  38d  12
2020 09 25 02  14 24 33.973   -13 03 33.31  3.1307 2.3923  35.9 27.8  38d  12
2020 09 25 03  14 24 38.525   -13 03 54.12  3.1312 2.3925  35.9 27.8  38d  12
2020 09 25 04  14 24 43.078   -13 04 14.93  3.1317 2.3927  35.9 27.8  38d  12
2020 09 25 05  14 24 47.630   -13 04 35.73  3.1322 2.3929  35.9 27.8  38d  12
2020 09 25 06  14 24 52.183   -13 04 56.52  3.1327 2.3931  35.9 27.8  38d  12
2020 09 25 07  14 24 56.736   -13 05 17.31  3.1332 2.3933  35.8 27.8  38d  12
2020 09 25 08  14 25 01.288   -13 05 38.09  3.1337 2.3934  35.8 27.8  38d  12
2020 09 25 09  14 25 05.841   -13 05 58.87  3.1342 2.3936  35.8 27.8  38d  12
2020 09 25 10  14 25 10.393   -13 06 19.64  3.1346 2.3938  35.8 27.8  38d  12
2020 09 25 11  14 25 14.946   -13 06 40.40  3.1351 2.3940  35.7 27.8  38d  12
2020 09 25 12  14 25 19.498   -13 07 01.16  3.1356 2.3942  35.7 27.8  38d  12
2020 09 25 13  14 25 24.050   -13 07 21.91  3.1361 2.3944  35.7 27.8  38d  12
2020 09 25 14  14 25 28.603   -13 07 42.65  3.1366 2.3946  35.7 27.8  38d  12
2020 09 25 15  14 25 33.155   -13 08 03.39  3.1371 2.3948  35.7 27.8  38d  12
2020 09 25 16  14 25 37.708   -13 08 24.12  3.1376 2.3950  35.6 27.8  38d  12
2020 09 25 17  14 25 42.260   -13 08 44.85  3.1380 2.3952  35.6 27.8  38d  12
2020 09 25 18  14 25 46.812   -13 09 05.57  3.1385 2.3954  35.6 27.8  38d  12
2020 09 25 19  14 25 51.365   -13 09 26.28  3.1390 2.3956  35.6 27.8  38d  12
2020 09 25 20  14 25 55.917   -13 09 46.99  3.1395 2.3957  35.6 27.8  38d  12
2020 09 25 21  14 26 00.469   -13 10 07.69  3.1400 2.3959  35.5 27.8  38d  12
2020 09 25 22  14 26 05.022   -13 10 28.39  3.1405 2.3961  35.5 27.8  38d  12
2020 09 25 23  14 26 09.574   -13 10 49.08  3.1410 2.3963  35.5 27.8  38d  12
2020 09 26 00  14 26 14.126   -13 11 09.76  3.1414 2.3965  35.5 27.8  38d  12
2020 09 26 01  14 26 18.678   -13 11 30.44  3.1419 2.3967  35.4 27.8  38d  12
2020 09 26 02  14 26 23.230   -13 11 51.11  3.1424 2.3969  35.4 27.8  38d  12
2020 09 26 03  14 26 27.783   -13 12 11.77  3.1429 2.3971  35.4 27.8  38d  12
2020 09 26 04  14 26 32.335   -13 12 32.43  3.1434 2.3973  35.4 27.8  38d  12
2020 09 26 05  14 26 36.887   -13 12 53.08  3.1439 2.3975  35.4 27.8  38d  12
2020 09 26 06  14 26 41.439   -13 13 13.73  3.1443 2.3977  35.3 27.8  38d  12
2020 09 26 07  14 26 45.991   -13 13 34.37  3.1448 2.3979  35.3 27.8  38d  12
2020 09 26 08  14 26 50.543   -13 13 55.00  3.1453 2.3980  35.3 27.8  38d  12
2020 09 26 09  14 26 55.095   -13 14 15.63  3.1458 2.3982  35.3 27.8  38d  12
2020 09 26 10  14 26 59.647   -13 14 36.25  3.1463 2.3984  35.2 27.8  38d  12
2020 09 26 11  14 27 04.199   -13 14 56.86  3.1468 2.3986  35.2 27.8  38d  12
2020 09 26 12  14 27 08.751   -13 15 17.47  3.1472 2.3988  35.2 27.8  38d  12
2020 09 26 13  14 27 13.303   -13 15 38.07  3.1477 2.3990  35.2 27.8  38d  12
2020 09 26 14  14 27 17.855   -13 15 58.67  3.1482 2.3992  35.2 27.8  38d  12
2020 09 26 15  14 27 22.407   -13 16 19.26  3.1487 2.3994  35.1 27.8  38d  12
2020 09 26 16  14 27 26.959   -13 16 39.84  3.1492 2.3996  35.1 27.8  38d  12
2020 09 26 17  14 27 31.511   -13 17 00.42  3.1496 2.3998  35.1 27.8  38d  12
2020 09 26 18  14 27 36.063   -13 17 20.99  3.1501 2.4000  35.1 27.8  38d  12
2020 09 26 19  14 27 40.615   -13 17 41.55  3.1506 2.4002  35.1 27.8  38d  12
2020 09 26 20  14 27 45.167   -13 18 02.11  3.1511 2.4003  35.0 27.8  38d  12
2020 09 26 21  14 27 49.718   -13 18 22.66  3.1516 2.4005  35.0 27.8  38d  12
2020 09 26 22  14 27 54.270   -13 18 43.21  3.1521 2.4007  35.0 27.8  38d  12
2020 09 26 23  14 27 58.822   -13 19 03.75  3.1525 2.4009  35.0 27.8  38d  12